www.pogodaiklimat.ru

Погода и климат >> Архив погоды >> Австралия >> Южная Австралия >> Порт Огаста


ПОГОДА в Порт Огаста

  • Прогноз погоды в Порт Огаста
  • Монитор погоды в Порт Огаста

АРХИВ ПОГОДЫ в Порт Огаста

Время (UTC), дата Ветер
(напр.,м/с)
 
Видим.   Явления Облачность Т
(С)
Тd
(С)
f
(%)
Тe
(С)
Тes
(С)
Комфортность P
(гПа)
Po
(гПа)
Тmin
(С)
Tmax
(С)
R
(мм)
R24
(мм)
S
(см)
01 12.03 ЮВ 5 н/о 9/9 1000 м
[]
+23.4 +10.1 43 +25 +25 комфорт 1017.1 1015.4 +17.2
02 12.03 ЮВ 7 н/о н/о +23.7 +13.0 51 +26 +26 жарко 1016.6 1014.9
03 12.03 ЮВ 8 н/о н/о +24.8 +12.4 46 +27 +27 жарко 1015.9 1014.2
04 12.03 ЮВ 9 н/о 1/1 1500 м
[]
+24.8 +11.4 43 +26 +26 жарко 1015.5 1013.8
05 12.03 ЮВ 10 н/о н/о +24.2 +12.8 49 +26 +26 жарко 1014.9 1013.2
06 12.03 ЮВ 9 н/о н/о +24.8 +12.7 47 +27 +27 жарко 1014.5 1012.8
07 12.03 ЮВ 9 н/о н/о +24.2 +11.9 46 +26 +26 жарко 1014.7 1013.0
08 12.03 ЮВ 9 н/о н/о +23.4 +11.8 48 +26 +26 жарко 1015.1 1013.4
09 12.03 ЮВ 9 н/о н/о +21.8 +12.9 57 +24 +24 комфорт 1015.2 1013.5
10 12.03 ЮВ 8 н/о н/о +20.6 +12.3 59 +22 +22 комфорт 1015.8 1014.1
11 12.03 Ю 8 н/о н/о +20.1 +12.3 61 +21 +21 комфорт 1016.6 1014.9
12 12.03 Ю 7 н/о н/о +20.2 +11.9 59 +22 +22 комфорт 1017.2 1015.5
13 12.03 Ю 7 н/о н/о +19.7 +9.9 53 +20 +20 1017.0 1015.3 +25.8
14 12.03 Ю 8 н/о н/о +19.2 +9.4 53 +19 +19 1016.9 1015.2
15 12.03 Ю 7 н/о н/о +18.6 +9.4 55 +18 +18 1016.7 1015.0
16 12.03 Ю 4 н/о н/о +17.8 +8.9 56 +18 +18 1016.7 1015.0
17 12.03 Ю 4 н/о н/о +17.1 +8.5 57 +17 +17 1015.9 1014.2
18 12.03 ЮВ 3 н/о н/о +16.8 +9.0 60 +17 +17 1015.8 1014.1
19 12.03 Ю 3 н/о н/о +14.6 +8.3 66 +14 +14 1016.2 1014.5
20 12.03 ЮВ 3 н/о н/о +15.0 +8.3 64 +14 +14 1016.4 1014.7
21 12.03 Ю 5 н/о н/о +15.3 +7.8 61 +14 +14 1017.3 1015.6
22 12.03 В 3 н/о н/о +17.7 +8.0 53 +18 +18 1017.8 1016.1
23 12.03 ЮВ 3 н/о н/о +20.1 +7.5 44 +21 +21 комфорт 1017.6 1015.9
00 13.03 ЮВ 3 н/о н/о +21.3 +7.2 40 +22 +22 комфорт 1017.3 1015.6
01 13.03 СЗ 2 н/о н/о +24.8 +7.4 33 +25 +25 комфорт 1017.1 1015.4 +14.2
02 13.03 З 3 н/о н/о +25.9 +8.0 32 +26 +26 жарко 1016.6 1014.9
03 13.03 ЮЗ 3 н/о н/о +26.7 +7.7 30 +27 +27 жарко 1015.8 1014.1
04 13.03 Ю 4 н/о 6/0
[]
+28.2 +8.0 28 +28 +28 жарко 1015.1 1013.4
05 13.03 ЮВ 8 н/о н/о +26.1 +9.5 35 +27 +27 жарко 1014.4 1012.7
06 13.03 ЮВ 8 н/о н/о +25.4 +11.2 41 +27 +27 жарко 1014.2 1012.5
07 13.03 ЮВ 7 н/о 3/0
[]
+25.7 +10.3 38 +27 +27 жарко 1014.1 1012.4
08 13.03 ЮВ 5 н/о н/о +24.9 +9.2 37 +26 +26 жарко 1013.3 1011.6
09 13.03 ЮВ 6 н/о н/о +24.8 +8.7 36 +25 +25 комфорт 1013.9 1012.2
10 13.03 Ю 6 н/о 5/0
[]
+23.8 +7.8 36 +24 +24 комфорт 1014.5 1012.8
11 13.03 ЮВ 7 н/о н/о +22.6 +4.6 31 +23 +23 комфорт 1015.4 1013.7
12 13.03 ЮВ 8 н/о н/о +21.0 +12.4 58 +23 +23 комфорт 1016.0 1014.3
13 13.03 ЮВ 9 н/о н/о +20.5 +10.6 53 +22 +22 комфорт 1015.6 1013.9 +29.6
14 13.03 ЮВ 8 н/о н/о +20.2 +11.1 56 +21 +21 комфорт 1015.5 1013.8
15 13.03 Ю 4 н/о н/о +19.2 +12.0 63 +20 +20 1015.5 1013.8
16 13.03 Ю 3 н/о н/о +18.1 +10.0 59 +18 +18 1014.8 1013.1
17 13.03 Ю 3 н/о н/о +18.2 +8.5 53 +19 +19 1014.3 1012.6
18 13.03 ЮВ 3 н/о н/о +16.8 +7.4 54 +17 +17 1013.7 1012.0
19 13.03 ЮВ 4 н/о н/о +18.4 +8.9 54 +19 +19 1014.0 1012.3
20 13.03 Ю 1 н/о н/о +15.4 +7.7 60 +17 +17 1014.7 1013.0
21 13.03 Ю 3 н/о н/о +17.3 +8.7 57 +17 +17 1015.3 1013.6
22 13.03 ЮВ 5 н/о н/о +20.9 +11.0 53 +23 +23 комфорт 1016.0 1014.3
23 13.03 Ю 6 н/о н/о +23.2 +6.5 34 +24 +24 комфорт 1016.5 1014.8
00 14.03 ЮВ 5 н/о н/о +24.3 +6.6 32 +24 +24 комфорт 1016.7 1015.0
01 14.03 ЮВ 4 н/о н/о +25.9 +6.5 29 +26 +26 жарко 1016.4 1014.7 +14.4
02 14.03 ЮВ 4 н/о н/о +26.7 +8.6 32 +27 +27 жарко 1015.6 1013.9
03 14.03 ЮВ 7 н/о н/о +26.4 +13.2 44 +28 +28 жарко 1015.1 1013.4
04 14.03 ЮВ 8 н/о н/о +27.4 +11.0 36 +28 +28 жарко 1014.4 1012.7
05 14.03 ЮВ 10 н/о н/о +27.7 +8.1 29 +27 +27 жарко 1013.9 1012.2
06 14.03 ЮВ 10 н/о н/о +26.4 +8.4 32 +26 +26 жарко 1013.6 1011.9
07 14.03 ЮВ 9 н/о н/о +25.8 +9.6 36 +26 +26 жарко 1013.6 1011.9
08 14.03 Ю 11 н/о н/о +24.9 +9.6 38 +26 +26 жарко 1013.9 1012.2
09 14.03 ЮВ 8 н/о н/о +22.9 +11.9 50 +25 +25 комфорт 1014.6 1012.9
10 14.03 ЮВ 4 н/о н/о +21.7 +12.8 57 +24 +24 комфорт 1015.4 1013.7
11 14.03 Ю 6 н/о н/о +21.0 +14.2 65 +24 +24 комфорт 1016.1 1014.4
12 14.03 Ю 7 н/о н/о +20.5 +12.2 59 +22 +22 комфорт 1016.6 1014.9
13 14.03 Ю 8 н/о н/о +20.8 +13.5 63 +23 +23 комфорт 1016.4 1014.7 +28.6
14 14.03 Ю 8 н/о н/о +20.1 +12.8 63 +22 +22 комфорт 1016.2 1014.5
15 14.03 Ю 6 н/о н/о +19.1 +12.6 66 +20 +20 1016.1 1014.4
16 14.03 Ю 3 н/о н/о +18.7 +12.5 67 +20 +20 1015.9 1014.2
17 14.03 Ю 3 н/о н/о +18.2 +12.4 69 +19 +19 1015.5 1013.8
18 14.03 Ю 6 н/о н/о +18.3 +12.1 67 +18 +18 1015.4 1013.7
19 14.03 Ю 5 н/о н/о +17.7 +11.5 67 +17 +17 1015.6 1013.9
20 14.03 Ю 6 н/о н/о +17.4 +11.9 70 +17 +17 1016.1 1014.4
21 14.03 Ю 6 н/о н/о +17.2 +11.2 68 +16 +16 1016.8 1015.1
22 14.03 ЮВ 7 н/о н/о +18.5 +11.6 64 +18 +18 1017.2 1015.5
23 14.03 ЮВ 6 н/о н/о +20.5 +9.7 50 +22 +22 комфорт 1017.3 1015.6
00 15.03 ЮВ 4 н/о н/о +23.3 +7.4 36 +24 +24 комфорт 1017.5 1015.8
01 15.03 ЮВ 5 н/о н/о +25.3 +5.5 28 +25 +25 комфорт 1017.6 1015.9 +16.9
02 15.03 ЮВ 4 н/о н/о +26.8 +5.7 26 +26 +26 жарко 1016.9 1015.2
03 15.03 ЮВ 3 н/о н/о +28.1 +4.4 22 +27 +27 жарко 1015.9 1014.2
04 15.03 СВ 3 н/о н/о +30.6 +5.1 20 +29 +29 жарко 1015.1 1013.4
05 15.03 В 4 н/о н/о +30.6 +3.6 18 +28 +28 жарко 1014.2 1012.5
06 15.03 ЮВ 6 н/о н/о +30.2 +8.6 26 +30 +30 жарко 1013.6 1011.9
07 15.03 ЮВ 8 н/о н/о +29.5 +9.1 28 +29 +29 жарко 1013.4 1011.7
08 15.03 ЮВ 7 н/о н/о +27.2 +12.4 40 +29 +29 жарко 1013.7 1012.0
09 15.03 ЮВ 6 н/о н/о +26.3 +8.3 32 +26 +26 жарко 1014.2 1012.5
10 15.03 ЮВ 8 н/о н/о +23.6 +12.6 50 +26 +26 жарко 1014.9 1013.2
11 15.03 Ю 3 н/о н/о +22.4 +13.5 57 +25 +25 комфорт 1016.0 1014.3
12 15.03 Ю 6 н/о н/о +23.1 +13.3 54 +26 +26 жарко 1016.2 1014.5
13 15.03 Ю 6 н/о н/о +21.8 +13.4 59 +25 +25 комфорт 1015.9 1014.2 +31.4
14 15.03 Ю 4 н/о н/о +21.5 +11.2 52 +23 +23 комфорт 1015.8 1014.1
15 15.03 ЮВ 4 н/о н/о +22.0 +9.5 45 +24 +24 комфорт 1015.7 1014.0
16 15.03 ЮВ 4 н/о н/о +21.5 +8.7 44 +23 +23 комфорт 1015.4 1013.7
17 15.03 В 3 н/о н/о +19.7 +7.8 46 +21 +21 комфорт 1015.2 1013.5
18 15.03 ЮВ 4 н/о н/о +19.9 +6.6 42 +21 +21 комфорт 1015.1 1013.4
19 15.03 В 5 н/о н/о +20.3 +5.5 38 +21 +21 комфорт 1015.0 1013.3
20 15.03 ЮВ 5 н/о н/о +19.4 +7.5 46 +20 +20 1015.3 1013.6
21 15.03 В 5 н/о н/о +19.7 +6.8 43 +20 +20 1015.8 1014.1
22 15.03 ЮВ 5 н/о н/о +22.3 +7.7 39 +23 +23 комфорт 1016.4 1014.7
23 15.03 В 6 н/о н/о +25.9 +6.0 28 +25 +25 комфорт 1016.5 1014.8
00 16.03 В 5 н/о н/о +28.4 +5.3 23 +27 +27 жарко 1016.5 1014.8
01 16.03 ЮВ 4 н/о н/о +30.1 +4.7 20 +28 +28 жарко 1016.3 1014.6 +18.6
02 16.03 ЮВ 3 н/о н/о +30.7 +3.7 18 +28 +28 жарко 1015.5 1013.8
03 16.03 В 3 н/о н/о +31.4 +2.6 16 +29 +29 жарко 1014.9 1013.2
04 16.03 ЮВ 6 н/о н/о +31.4 +2.6 16 +29 +29 жарко 1014.2 1012.5
05 16.03 ЮВ 7 н/о н/о +32.5 +0.6 13 +29 +29 жарко 1013.5 1011.8
06 16.03 ЮВ 8 н/о н/о +31.6 -0.1 13 +28 +28 жарко 1013.0 1011.3
07 16.03 ЮВ 7 н/о н/о +32.4 +2.5 15 +30 +30 жарко 1013.1 1011.4
08 16.03 ЮВ 6 н/о н/о +30.5 +6.4 22 +29 +29 жарко 1013.5 1011.8
09 16.03 ЮВ 5 н/о н/о +27.7 +10.9 35 +28 +28 жарко 1014.0 1012.3
10 16.03 ЮВ 5 н/о н/о +25.0 +14.5 52 +28 +28 жарко 1014.8 1013.1
11 16.03 ЮВ 6 н/о н/о +25.5 +9.3 36 +26 +26 жарко 1015.3 1013.6
12 16.03 ЮЗ 3 н/о н/о +24.5 +8.5 36 +25 +25 комфорт 1015.5 1013.8
13 16.03 ЮВ 7 н/о н/о +24.9 +9.6 38 +26 +26 жарко 1015.1 1013.4 +33.1
14 16.03 ЮВ 4 н/о н/о +23.3 +9.7 42 +25 +25 комфорт 1014.9 1013.2
15 16.03 В 2 н/о н/о +20.0 +8.4 47 +22 +22 комфорт 1014.6 1012.9
16 16.03 ЮВ 2 н/о н/о +19.0 +6.2 43 +20 +20 1014.3 1012.6
17 16.03 штиль 0 н/о н/о +17.3 +5.6 46 +17 +17 1013.8 1012.1
18 16.03 Ю 2 н/о н/о +17.5 +5.1 44 +18 +18 1013.7 1012.0
19 16.03 Ю 2 н/о н/о +18.0 +8.3 53 +19 +19 1013.9 1012.2
20 16.03 ЮЗ 2 н/о н/о +16.7 +4.1 43 +17 +17 1014.4 1012.7
21 16.03 Ю 2 н/о н/о +18.1 +5.3 43 +19 +19 1015.2 1013.5
22 16.03 ЮВ 2 н/о н/о +24.3 +7.0 33 +24 +24 комфорт 1015.7 1014.0
23 16.03 ЮВ 5 н/о н/о +27.4 +6.2 26 +27 +27 жарко 1015.9 1014.2
00 17.03 ЮВ 4 н/о н/о +28.3 +6.4 25 +27 +27 жарко 1016.1 1014.4
01 17.03 ЮВ 4 н/о н/о +30.6 +6.5 22 +29 +29 жарко 1015.9 1014.2 +15.9
02 17.03 ЮВ 3 н/о н/о +32.8 +4.6 17 +30 +30 жарко 1015.2 1013.5
03 17.03 ЮВ 5 н/о н/о +33.8 +1.6 13 +31 +31 жарко 1014.5 1012.8
04 17.03 ЮВ 6 н/о н/о +33.6 +3.4 15 +31 +31 жарко 1013.9 1012.2
05 17.03 ЮВ 7 н/о н/о +34.2 +0.8 12 +31 +31 жарко 1013.0 1011.3
06 17.03 ЮВ 8 н/о н/о +33.2 +4.0 16 +31 +31 жарко 1012.7 1011.0
07 17.03 ЮВ 8 н/о н/о +32.4 +7.3 21 +31 +31 жарко 1012.6 1010.9
08 17.03 ЮВ 7 н/о н/о +31.0 +6.1 21 +29 +29 жарко 1012.9 1011.2
09 17.03 ЮВ 6 н/о н/о +28.6 +8.3 28 +28 +28 жарко 1013.4 1011.7
10 17.03 ЮВ 5 н/о н/о +25.7 +14.8 51 +28 +28 жарко 1014.0 1012.3
11 17.03 ЮВ 7 н/о н/о +27.0 +8.0 30 +27 +27 жарко 1014.6 1012.9
12 17.03 ЮВ 7 н/о н/о +27.2 +8.1 30 +27 +27 жарко 1014.8 1013.1
13 17.03 ЮВ 4 н/о н/о +26.0 +8.5 33 +26 +26 жарко 1014.6 1012.9 +34.8
14 17.03 ЮВ 4 н/о н/о +24.2 +9.4 39 +25 +25 комфорт 1014.3 1012.6
15 17.03 Ю 2 н/о н/о +24.5 +8.0 35 +25 +25 комфорт 1014.0 1012.3
16 17.03 ЮВ 3 н/о н/о +24.5 +8.0 35 +25 +25 комфорт 1013.8 1012.1
17 17.03 ЮВ 2 н/о н/о +22.2 +11.0 49 +24 +24 комфорт 1013.8 1012.1
18 17.03 ЮВ 4 н/о н/о +22.0 +15.1 65 +26 +26 душно 1013.9 1012.2
19 17.03 ЮВ 4 н/о н/о +21.3 +14.9 67 +24 +24 комфорт 1014.4 1012.7
20 17.03 ЮВ 4 н/о н/о +20.7 +14.6 68 +24 +24 комфорт 1014.9 1013.2
21 17.03 Ю 2 н/о н/о +20.1 +14.9 72 +23 +23 комфорт 1015.3 1013.6
22 17.03 штиль 0 н/о н/о +22.3 +14.4 61 +26 +26 жарко 1015.9 1014.2
23 17.03 ЮВ 5 н/о н/о +25.3 +14.1 50 +28 +28 жарко 1016.1 1014.4
00 18.03 ЮВ 5 н/о н/о +26.3 +14.1 47 +29 +29 жарко 1016.0 1014.3
01 18.03 В 2 н/о н/о +30.0 +13.3 36 +31 +31 жарко 1015.7 1014.0 +19.7
02 18.03 СЗ 4 н/о н/о +33.4 +11.3 26 +33 +33 жарко 1015.0 1013.3
03 18.03 З 4 н/о н/о +34.3 +7.4 19 +32 +32 жарко 1014.0 1012.3
04 18.03 СЗ 4 н/о н/о +36.2 +4.5 14 +33 +33 жарко 1012.9 1011.2
05 18.03 ЮЗ 5 н/о н/о +36.6 +2.6 12 +33 +33 жарко 1011.8 1010.1
06 18.03 ЮВ 6 н/о н/о +34.6 +11.7 25 +34 +34 очень
жарко
1011.1 1009.4
07 18.03 ЮВ 8 н/о н/о +33.7 +10.9 25 +33 +33 жарко 1010.9 1009.2
08 18.03 ЮВ 7 н/о н/о +33.0 +9.1 23 +32 +32 жарко 1010.9 1009.2
09 18.03 ЮВ 7 н/о н/о +29.6 +12.9 36 +31 +31 жарко 1011.2 1009.5
10 18.03 ЮВ 8 н/о н/о +24.8 +15.4 56 +28 +28 жарко 1012.3 1010.6
11 18.03 Ю 4 н/о н/о +23.7 +14.9 58 +27 +27 жарко 1013.8 1012.1
12 18.03 Ю 7 н/о н/о +22.9 +16.7 68 +28 +28 душно 1014.6 1012.9
13 18.03 Ю 7 н/о н/о +22.2 +17.1 73 +27 +27 душно 1014.8 1013.1 +37.5
14 18.03 Ю 6 н/о н/о +21.8 +17.2 75 +26 +26 душно 1014.5 1012.8
15 18.03 ЮВ 5 н/о н/о +22.1 +16.1 69 +26 +26 душно 1014.1 1012.4
16 18.03 Ю 6 н/о н/о +21.9 +17.1 74 +26 +26 душно 1014.0 1012.3
17 18.03 Ю 7 н/о н/о +21.5 +17.3 77 +26 +26 душно 1013.5 1011.8
18 18.03 Ю 6 н/о н/о +21.4 +16.8 75 +25 +25 комфорт 1013.3 1011.6
19 18.03 Ю 4 н/о 10/0
[]
+21.1 +16.5 75 +25 +25 комфорт 1013.6 1011.9
20 18.03 ЮВ 6 н/о н/о +20.5 +17.1 81 +24 +24 комфорт 1013.5 1011.8
21 18.03 Ю 5 н/о н/о +20.1 +16.7 81 +23 +23 комфорт 1014.3 1012.6
22 18.03 ЮВ 6 н/о 4/0
[]
+21.5 +16.7 74 +25 +25 комфорт 1014.8 1013.1
23 18.03 ЮВ 7 н/о н/о +23.0 +16.8 68 +28 +28 душно 1015.1 1013.4
00 19.03 ЮВ 7 н/о н/о +24.6 +17.1 63 +28 +28 душно 1015.3 1013.6
01 19.03 ЮВ 7 н/о н/о +24.8 +18.0 66 +29 +29 душно 1015.0 1013.3 +20.1

 

Местоположение метеостанции Порт Огаста (Южная Австралия, Австралия): широта -32.52 долгота 137.72 высота над уровнем моря 14 м.

В архиве по умолчанию представлена погода в Порт Огаста за последнюю неделю. Архивные данные за месяц целиком и за предыдущие месяцы, начиная с января 2011 года, Вы можете получить, выбрав интересующий диапазон дат из раскрывающегося списка и нажав кнопку "Ввод!".


*Определитесь, кто Вы:
робот инопланетянин человек

Внимание! Время в таблицах - всемирное. Для получения местного времени необходимо прибавить поправку, которая равна 9.5 ч.

Смотрите также архив погоды в соседних городах и на ближайших метеорологических станциях:

Погода в Уиолле (Южная Австралия, Австралия) (64 км)
Погода в Сноутауне (Южная Австралия, Австралия) (148 км)
Погода в Кадине (Южная Австралия, Австралия) (161 км)
Погода в Мунте (Южная Австралия, Австралия) (166 км)
Погода в Клэре (Южная Австралия, Австралия) (166 км)
Погода в Юнте (Южная Австралия, Австралия) (174 км)
Погода на Аэродроме Вумера (Южная Австралия, Австралия) (175 км)
Погода в Кливе (Южная Австралия, Австралия) (175 км)
Погода в Уудинне (Южная Австралия, Австралия) (220 км)
Погода в Ли-Крике (Южная Австралия, Австралия) (224 км)

Пояснения к столбцам:

Ветер - указаны скорость ветра в м/с - средняя за 10 мин, порывы в срок и между сроками (в фигурных скобках) и направление, откуда дует ветер: С - северный, СВ - северо-восточный, В - восточный, ЮВ - юго-восточный, Ю - южный, ЮЗ - юго-западный, З - западный, СЗ - северо-западный.
Видимость - горизонтальная дальность видимости в метрах или километрах. При видимости от 1 до 10 км при отсутствии осадков обычно наблюдается дымка, при ухудшении видимости до 1 км и менее - туман. В сухую погоду видимость может ухудшаться дымом, пылью или мглою.
Явления - указаны атмосферные явления, наблюдавшиеся в срок или в последний час перед сроком; фигурными скобками обозначены явления, наблюдавшиеся между сроками (за 1-3 часа до срока); квадратными скобками обозначены град или гололедные отложения с указанием их диаметра в мм.
Облачность - указаны через наклонную черту общая и нижняя облачность в баллах и высота нижней границы облаков в метрах; квадратными скобками обозначены формы облаков: Ci - перистые, Cs - перисто-слоистые, Cc - перисто-кучевые, Ac - высококучевые, As - высокослоистые, Sc - слоисто-кучевые, Ns - слоисто-дождевые, Cu - кучевые, Cb - кучево-дождевые. Подробнее классификацию облаков см. в Атласе облаков (PDF).
T - Температура воздуха - температура, измеренная на высоте 2 м над землей.
Td - Температура точки росы - температура, при понижении до которой содержащийся в воздухе водяной пар достигнет насыщения.
f - Относительная влажность воздуха - влажноcть воздуха, измеренная на высоте 2 м над землей.
Te - Эффективная температура - температура, которую ощущает одетый по сезону человек в тени. Характеристика душности погоды. При расчете учитывается влияние влажности воздуха и скорости ветра на теплоощущения человека.
Tes - Эффективная температура на солнце - температура, которую ощущает человек, с поправкой на солнечный нагрев. Характеристика знойности погоды. Зависит от высоты солнца над горизонтом, облачности и скорости ветра. Ночью, в пасмурную погоду, а также при ветре 12 м/с и более поправка равна нулю.
P - Атмосферное давление - приведенное к уровню моря атмосферное давление.
Po - Атмосферное давление - измеренное на уровне метеостанции атмосферное давление.
Tmin - Минимальная температура - минимум температуры воздуха на высоте 2 м над землей.
Tmax - Максимальная температура - максимум температуры воздуха на высоте 2 м над землей.
R - Количество осадков - Количество выпавших осадков за период времени, мм. При наведении курсора мыши на число - период времени, за который выпало указанное количество осадков.
R24 - Количество осадков - Количество выпавших осадков за 24 часа, мм.
S - Снежный покров - Высота снежного покрова, см. При наведении курсора мыши на число - состояние снежного покрова и степень покрытия местности в баллах.